Location: Boncourt
(49.6160°N, 3.9448°E)
Time: 08:05:39
(UTC+00:00)

Cosmos 2285 Rocket - Visible Passes

Search period start: 24 September 2023 00:00
Search period end: 04 October 2023 00:00
Orbit: 971 x 998 km, 74.0° (Epoch: 24 September)

Date Brightness Start Highest point End Pass type
(mag) Time Alt. Az. Time Alt. Az. Time Alt. Az.
24 Sep 6.6 01:44:25 10° N 01:48:20 17° NE 01:52:14 10° ENE visible
24 Sep 4.5 03:30:17 10° NNW 03:36:33 61° ENE 03:42:47 10° SE visible
24 Sep 4.5 18:52:55 10° SW 18:59:11 65° WNW 19:05:29 10° NNE visible
24 Sep 6.6 20:43:13 10° W 20:47:19 18° NW 20:51:25 10° N visible
25 Sep 6.0 02:12:14 10° N 02:17:24 26° NE 02:22:32 10° ESE visible
25 Sep 3.9 03:58:36 10° NNW 04:04:55 79° WSW 04:11:13 10° SSE visible
25 Sep 5.5 19:21:55 10° WSW 19:27:46 39° NW 19:33:38 10° NNE visible
25 Sep 6.9 21:14:25 10° NW 21:16:35 12° NNW 21:18:47 10° N visible
26 Sep 6.9 00:54:57 10° N 00:57:27 12° NNE 00:59:56 10° NE visible
26 Sep 5.2 02:40:15 10° NNW 02:46:11 41° NE 02:52:07 10° SE visible
26 Sep 4.3 04:27:08 10° NW 04:33:03 44° WSW 04:38:58 10° S visible
26 Sep 4.0 18:02:40 10° SSW 18:08:59 84° ESE 18:15:20 10° NNE visible
26 Sep 6.2 19:51:34 10° W 19:56:35 24° NW 20:01:38 10° N visible
27 Sep 6.4 01:22:25 10° N 01:26:42 18° NE 01:30:58 10° E visible
27 Sep 4.2 03:08:25 10° NNW 03:14:44 70° ENE 03:21:02 10° SSE visible
27 Sep 4.9 04:56:04 10° NW 05:00:57 24° W 05:05:51 10° SSW visible
27 Sep 4.8 18:31:11 10° SW 18:37:23 57° WNW 18:43:36 10° NNE visible
27 Sep 6.7 20:21:58 10° WNW 20:25:41 16° NW 20:29:24 10° N visible
28 Sep 5.8 01:50:17 10° N 01:55:42 29° NE 02:01:05 10° ESE visible
28 Sep 3.9 03:36:47 10° NNW 03:43:03 69° WSW 03:49:19 10° S visible
28 Sep 5.7 19:00:20 10° WSW 19:06:01 34° NW 19:11:43 10° NNE visible
28 Sep 6.9 20:53:39 10° NW 20:55:01 11° NNW 20:56:24 10° NNW visible
29 Sep 6.7 00:32:49 10° N 00:35:51 14° NNE 00:38:53 10° ENE visible
29 Sep 4.9 02:18:21 10° NNW 02:24:26 47° ENE 02:30:29 10° SE visible
29 Sep 4.4 04:05:23 10° NW 04:11:07 38° WSW 04:16:51 10° SSW visible
29 Sep 6.4 19:30:10 10° W 19:34:55 22° NW 19:39:41 10° N visible
30 Sep 6.2 01:00:26 10° N 01:05:03 21° NE 01:09:39 10° E visible
30 Sep 4.0 02:46:34 10° NNW 02:52:55 80° ENE 02:59:15 10° SSE visible
30 Sep 5.1 04:34:30 10° NW 04:38:58 21° W 04:43:28 10° SW visible
30 Sep 5.0 18:09:29 10° SW 18:15:35 50° WNW 18:21:43 10° NNE visible
30 Sep 6.7 20:00:47 10° WNW 20:04:04 14° NW 20:07:21 10° N visible
30 Sep 6.8 23:44:13 10° NNE 23:44:52 10° NNE 23:45:32 10° NNE visible
01 Oct 5.5 01:28:22 10° N 01:33:59 32° NE 01:39:35 10° ESE visible
01 Oct 3.9 03:14:58 10° NNW 03:21:10 59° WSW 03:27:21 10° S visible
01 Oct 5.7 05:06:03 10° W 05:06:35 10° W 05:07:08 10° W visible
01 Oct 5.9 18:38:48 10° WSW 18:44:18 30° NW 18:49:48 10° N visible
02 Oct 6.5 00:10:44 10° N 00:14:15 15° NE 00:17:45 10° ENE visible
02 Oct 4.6 01:56:28 10° NNW 02:02:39 53° ENE 02:04:53 37° ESE visible
02 Oct 4.6 03:43:41 10° NW 03:49:11 33° W 03:49:19 33° WSW visible
02 Oct 6.5 19:08:48 10° W 19:13:15 20° NW 19:17:43 10° N visible
03 Oct 6.0 00:38:28 10° N 00:43:22 23° NE 00:44:44 21° ENE visible
03 Oct 4.4 02:24:43 10° NNW 02:29:26 53° NNW 02:29:26 53° NNW visible
03 Oct 5.7 04:13:00 10° NW 04:14:08 13° WNW 04:14:08 13° WNW visible
03 Oct 5.3 17:47:49 10° SW 17:53:49 44° WNW 17:59:50 10° NNE visible
03 Oct 6.7 19:39:41 10° WNW 19:42:29 13° NNW 19:45:16 10° N visible
03 Oct 6.7 23:21:30 10° N 23:23:19 11° NNE 23:25:07 10° NE visible
